Theta_e
322 322 321 322 323 318 317 318 323 323 317 318 318 324 333 336 340 339 340 341 341 341 342 342 342 341 341 342 342 342 343 345 345 346 346 347 348 348 347 346 344 342 342 342
327 326 328 325 323 322 321 321 317 320 321 318 325 335 336 338 340 340 341 342 342 342 342 342 342 341 342 342 343 344 344 342 343 345 347 348 348 347 347 347 346 347 346 346
326 326 327 327 324 323 322 321 322 325 323 324 333 335 335 336 339 339 341 342 342 343 342 342 342 342 342 342 343 343 342 344 344 346 345 345 345 346 348 347 348 348 347 345
325 327 332 325 322 325 322 323 324 325 324 325 327 333 336 337 337 339 339 340 341 342 339 340 341 341 342 342 342 342 344 345 346 345 343 336 344 347 347 346 346 346 344 342
326 327 326 327 327 329 328 329 327 328 327 333 333 335 333 336 338 339 340 339 339 340 334 335 343 342 340 341 344 343 346 348 348 347 345 341 345 346 344 343 341 335 331 330
322 328 330 326 327 329 328 329 326 327 328 336 335 331 328 332 337 339 338 338 340 337 336 335 335 342 349 349 348 347 348 348 346 343 343 344 343 342 337 332 329 327 324 321
319 324 323 324 326 329 329 328 328 328 328 334 334 331 332 335 337 338 338 338 337 337 336 336 345 345 345 344 345 347 347 346 344 344 342 337 333 328 326 323 321 320 318 319
318 322 325 326 327 330 326 328 328 329 329 330 334 336 336 337 337 338 337 338 337 338 339 343 345 344 340 335 343 345 343 343 342 336 332 327 324 322 320 320 318 319 321 322
324 323 319 325 326 325 329 329 329 330 331 332 335 338 336 337 337 337 337 340 339 338 341 339 340 342 341 343 344 342 341 339 334 331 324 322 321 321 320 318 320 321 321 321
322 320 323 322 324 325 328 324 328 329 332 334 338 339 338 336 337 338 338 338 336 344 344 343 346 344 345 342 342 341 338 335 333 326 322 321 321 319 318 319 320 321 321 321
319 319 321 323 328 325 325 325 324 328 331 333 338 341 340 337 337 339 339 338 343 346 345 346 346 345 342 341 340 337 335 334 329 322 321 321 319 317 318 319 321 321 321 320
319 318 319 320 323 320 323 325 324 324 329 333 334 337 341 339 338 340 340 342 344 344 346 345 343 341 340 338 337 336 334 331 322 322 322 322 318 317 318 320 320 321 321 320
318 317 319 320 322 319 320 324 324 324 328 331 333 335 340 338 338 339 340 342 338 339 341 343 343 340 339 338 336 335 333 327 322 323 322 322 317 317 319 319 320 320 321 320
317 321 322 319 318 318 323 324 325 326 327 329 331 332 335 335 337 338 339 338 339 340 343 344 342 340 339 337 335 333 330 323 325 325 322 323 319 317 318 318 318 318 321 321
319 318 317 318 321 322 323 325 325 326 327 328 331 331 332 333 339 340 340 340 342 342 343 343 342 340 338 336 335 332 323 324 325 325 323 322 322 317 318 318 317 316 319 321
321 322 323 324 324 325 325 325 326 326 327 328 331 332 337 336 336 341 341 342 341 341 342 342 341 338 336 335 334 329 323 324 325 327 326 323 322 322 315 318 318 316 315 317
320 322 322 323 323 325 326 327 326 326 327 329 331 333 335 334 338 340 341 340 340 339 338 337 334 333 334 335 334 332 325 326 329 328 327 324 322 323 320 313 316 317 316 314
325 325 326 326 326 326 326 326 326 326 328 330 331 334 338 338 339 340 339 337 336 334 333 332 332 331 334 334 333 333 331 330 330 330 329 327 325 323 319 313 312 312 313 313
326 327 327 327 327 328 327 326 326 326 327 329 332 331 337 338 337 337 336 334 332 331 331 332 332 332 332 334 333 333 333 331 332 332 330 329 326 318 315 313 310 309 310 310
326 327 327 327 327 328 327 325 326 325 327 331 333 333 335 337 336 334 333 332 331 330 331 331 332 332 332 333 334 335 334 333 332 332 331 329 324 316 316 316 315 315 314 310
324 326 326 329 329 329 326 327 327 325 325 330 332 333 334 335 335 334 334 332 329 331 331 331 331 332 332 333 335 334 334 333 332 332 331 327 320 317 316 317 317 317 317 316
325 326 326 329 329 328 328 328 327 328 328 328 332 332 334 335 335 335 334 331 330 330 331 331 331 331 331 332 333 334 335 334 332 328 325 321 319 318 319 318 318 318 318 317
326 328 328 329 329 329 328 327 327 329 330 328 328 330 329 331 334 334 334 332 331 331 329 326 324 328 331 331 331 333 333 333 328 321 321 320 322 323 322 322 321 319 318 318
326 327 328 329 329 328 328 329 329 327 328 329 331 331 329 332 334 333 334 332 331 330 326 328 330 327 331 332 331 333 332 330 324 321 321 321 323 324 324 324 322 322 320 319
327 329 329 329 326 329 329 329 328 328 329 328 330 330 332 331 332 332 333 332 331 330 328 329 330 329 324 330 332 332 330 330 329 325 323 322 322 323 323 323 323 322 322 322
328 328 328 327 328 328 329 328 326 324 325 328 329 329 330 329 332 333 333 331 330 331 330 330 331 330 329 327 324 326 328 328 329 328 325 325 324 323 323 321 321 320 321 323
327 327 327 328 328 328 327 329 327 326 325 323 323 326 328 330 332 332 332 331 330 329 329 329 330 330 330 330 330 330 328 327 327 326 326 327 327 326 326 325 324 322 320 320
Wind_Speed
6 8 4 6 6 6 7 5 6 5 8 9 8 7 6 13 13 14 18 20 22 28 33 36 35 36 33 34 28 28 28 25 23 24 25 23 22 17 16 18 22 23 28 30
4 5 3 5 8 6 6 3 6 4 6 9 7 5 6 12 14 14 17 19 18 20 24 27 27 28 29 30 28 26 25 20 18 19 19 17 18 18 17 18 18 23 23 29
4 4 7 6 8 8 7 6 7 5 9 3 4 7 13 16 15 17 19 19 20 19 19 21 21 24 28 29 28 27 25 18 19 13 16 19 18 21 21 22 22 24 26 26
4 4 5 7 5 6 8 5 4 5 6 6 6 7 11 14 19 22 21 20 18 18 17 15 19 19 24 30 28 27 25 22 19 17 18 18 19 21 18 18 18 20 23 26
4 6 5 12 4 4 4 4 0 2 7 5 7 5 14 17 21 24 24 21 15 12 11 12 16 23 27 25 23 21 23 18 16 16 16 14 18 15 13 15 18 20 22 24
3 6 9 9 3 9 3 5 6 9 6 4 2 1 6 17 22 23 21 21 18 14 8 7 10 21 23 24 25 26 20 17 13 11 12 12 9 9 10 12 15 18 22 26
4 4 6 3 9 3 4 4 17 14 19 9 6 8 12 17 24 25 25 21 20 14 9 8 5 9 19 13 26 22 18 15 13 10 7 6 5 5 6 9 12 17 21 26
2 2 6 6 5 3 3 10 16 15 18 21 22 24 26 15 23 28 26 25 21 17 15 8 6 11 21 21 14 14 16 16 11 9 8 7 5 2 3 8 13 17 20 25
7 5 1 5 10 8 7 12 18 20 19 20 24 24 19 19 20 24 25 26 22 20 16 14 11 9 9 11 15 18 15 12 8 8 9 7 3 1 6 10 12 17 21 25
2 3 3 22 17 12 6 15 17 20 19 15 21 21 18 15 22 28 26 24 24 21 16 15 15 14 10 11 13 11 9 7 7 10 9 7 4 6 9 11 17 22 27 30
4 9 18 11 2 5 14 17 17 17 15 12 15 15 14 15 23 33 24 22 21 18 15 15 15 15 14 14 15 15 10 6 11 13 10 7 7 9 12 17 22 26 29 28
9 15 14 22 17 19 23 23 21 18 19 11 13 10 10 11 21 30 26 24 21 18 17 16 17 17 17 17 17 12 9 12 15 12 9 7 8 10 14 18 21 24 26 27
22 29 24 26 23 27 21 17 21 16 16 17 13 10 9 8 17 21 25 22 19 17 16 17 18 16 16 15 14 11 6 14 13 10 9 7 8 10 13 16 18 23 27 28
28 23 18 28 25 26 13 16 19 16 17 17 14 9 6 3 19 21 21 18 15 15 18 19 17 18 16 14 13 13 10 13 10 9 8 7 7 8 8 12 16 21 27 30
19 24 30 27 23 17 18 20 21 18 17 19 13 10 11 19 19 26 21 18 18 17 18 18 16 16 15 15 16 16 16 14 11 8 7 5 4 4 5 9 12 17 20 25
20 19 17 18 20 22 22 24 23 20 16 18 16 13 11 10 11 17 17 18 17 19 19 18 16 15 17 19 21 19 17 13 9 6 6 7 5 3 2 2 6 9 12 17
21 24 25 25 23 22 20 21 22 18 15 15 13 12 14 13 14 16 15 16 17 15 15 15 16 15 18 21 21 19 18 15 11 9 8 10 8 4 3 2 4 1 4 9
17 21 23 25 26 25 21 13 16 16 17 13 16 11 13 18 21 18 16 17 16 15 15 13 14 15 21 23 22 20 18 18 15 10 8 9 8 8 7 6 4 2 1 2
15 18 22 21 17 15 16 15 15 14 15 12 15 14 18 20 17 14 16 15 14 15 14 16 17 17 20 23 22 23 21 20 18 14 10 9 11 10 8 5 4 3 1 1
16 17 16 14 13 15 10 7 10 16 14 11 12 15 21 21 18 15 14 11 8 7 10 15 20 21 20 23 24 25 24 22 20 18 14 13 13 12 10 8 5 2 2 3
15 17 14 11 10 11 8 5 8 10 14 14 9 10 10 16 20 19 17 13 11 12 13 15 17 19 20 23 24 27 25 24 23 21 16 15 14 13 13 11 8 8 7 7
16 14 10 8 8 11 11 7 7 9 10 22 14 6 11 22 22 20 14 8 15 14 14 13 14 16 20 24 26 25 25 23 18 17 17 16 14 13 11 11 11 10 10 10
13 11 11 9 10 9 13 14 15 14 16 18 24 16 13 7 22 23 20 15 15 14 12 10 9 11 16 20 25 25 22 20 20 19 19 16 13 10 7 11 15 15 15 15
16 11 12 5 10 9 8 13 10 11 11 15 20 19 14 10 18 17 13 14 14 12 13 11 7 6 12 18 20 21 20 19 19 19 18 17 17 16 17 17 15 17 18 17
13 12 3 14 9 8 8 12 13 13 11 10 13 18 15 11 8 10 13 10 11 12 12 12 9 8 8 12 17 19 21 20 21 22 21 21 21 20 20 22 21 17 20 19
9 11 10 13 10 11 14 15 17 15 12 12 13 10 9 10 12 11 11 11 11 14 12 11 11 10 9 9 10 13 17 17 19 20 20 20 21 22 23 23 23 22 20 23
12 15 16 10 4 5 5 2 5 6 8 9 6 6 7 8 9 9 12 14 12 13 14 15 12 11 12 13 13 13 15 17 19 21 23 25 25 24 24 24 23 22 24 24
Wind_Direction
261 257 217 242 261 178 170 218 164 226 199 255 268 273 261 269 238 210 217 222 223 220 222 227 227 226 230 236 233 235 235 240 240 243 245 248 252 262 260 258 258 265 268 272
276 276 330 266 262 229 247 180 263 231 253 221 262 241 232 227 227 217 213 220 224 220 221 224 224 224 224 231 231 226 226 227 230 241 251 255 258 251 258 257 260 263 264 281
267 340 321 284 223 214 218 203 169 178 227 208 237 225 240 231 215 220 215 212 212 211 215 225 229 226 227 227 226 224 229 221 224 224 236 251 254 251 251 254 261 266 271 276
223 357 261 246 284 254 224 247 239 295 253 233 260 280 274 247 222 214 217 213 210 217 227 237 241 228 222 227 230 232 231 218 206 209 220 238 257 252 252 258 266 274 281 283
182 204 284 300 354 27 354 272 155 250 297 312 317 314 277 248 229 224 216 207 200 198 204 218 223 218 222 224 221 219 211 206 194 195 216 225 237 245 261 277 285 288 291 288
161 178 220 220 306 321 267 258 348 352 318 303 157 8 258 257 218 210 208 198 192 194 220 216 213 207 197 192 198 193 187 184 196 197 217 210 226 256 272 279 284 291 294 295
205 236 282 260 279 339 168 245 323 331 316 287 219 228 281 326 219 203 204 201 178 176 187 169 144 166 170 148 176 161 168 171 162 175 182 189 206 224 255 279 292 297 299 302
121 178 260 358 2 183 278 325 329 324 311 308 288 271 279 304 222 205 198 191 188 187 182 191 167 139 146 162 172 148 150 142 138 137 154 161 167 189 289 310 319 321 321 319
186 219 236 304 284 306 293 321 332 322 323 308 300 301 286 259 224 211 195 189 196 200 191 193 198 202 177 166 168 149 141 129 122 139 147 146 142 11 349 353 353 350 346 339
22 283 259 319 310 284 285 313 321 333 329 312 299 307 298 261 218 207 196 197 203 203 196 200 192 183 184 189 171 155 151 135 128 149 144 130 82 35 23 14 11 7 2 356
253 289 303 285 7 334 328 329 316 323 322 316 303 312 298 250 218 211 205 195 195 191 186 186 173 163 159 158 160 161 164 147 156 150 139 110 73 48 35 26 25 18 12 7
255 252 252 269 292 313 307 317 315 313 325 294 296 303 274 230 212 201 196 191 182 185 186 186 176 170 165 164 168 179 174 158 154 146 129 104 69 57 45 42 35 30 17 14
250 270 270 262 275 298 290 296 313 301 295 294 292 291 236 186 188 198 189 190 192 185 190 192 187 183 181 181 183 180 185 165 158 152 142 104 84 71 59 52 42 37 29 25
266 265 265 276 277 294 279 297 307 297 272 287 297 277 205 219 198 196 181 181 194 196 196 197 190 192 193 191 184 180 174 170 161 159 145 120 100 90 71 63 51 42 40 33
269 261 260 269 281 276 280 284 293 291 282 289 275 256 195 211 215 204 196 196 195 195 202 205 204 201 202 198 190 182 178 179 170 166 163 156 120 112 92 61 55 50 52 51
292 291 285 282 290 288 280 275 272 278 272 283 275 272 227 221 225 209 195 199 204 204 211 220 224 216 208 198 189 185 184 190 195 195 201 201 196 168 150 99 59 52 51 58
282 285 288 288 290 290 286 277 256 262 254 255 262 278 252 214 212 203 199 200 205 213 226 230 233 220 208 194 194 193 190 193 194 203 212 219 224 235 243 243 234 267 32 44
284 283 284 281 280 283 284 276 248 255 242 240 237 232 192 187 184 181 197 198 201 206 211 210 212 212 201 197 200 200 200 200 205 211 216 223 226 235 242 233 231 239 10 30
284 286 287 281 274 274 271 260 250 247 237 234 223 229 187 173 171 183 195 196 199 204 205 209 211 210 203 200 206 208 207 210 215 219 226 227 220 219 214 206 205 220 202 103
297 302 302 279 259 257 250 236 237 237 230 220 214 215 195 180 176 181 187 193 209 219 221 213 211 212 205 203 212 213 213 217 224 228 226 228 218 211 209 205 206 231 284 271
319 314 306 287 256 222 205 235 237 236 220 218 220 224 211 187 178 175 180 185 186 192 202 207 212 213 206 207 210 216 218 220 224 227 227 221 215 213 214 218 230 245 257 269
323 321 307 293 225 205 203 219 275 260 227 205 202 176 200 185 184 179 177 174 177 185 198 202 207 209 210 209 213 218 219 224 225 216 210 204 205 211 223 237 244 246 256 261
324 320 315 278 235 230 234 262 280 264 236 203 199 199 202 191 192 182 184 179 184 186 194 187 194 209 211 212 212 216 218 215 211 203 200 204 212 222 251 270 256 255 251 252
339 321 322 272 208 199 247 286 255 228 196 193 197 208 199 212 181 187 181 182 187 182 183 181 188 203 208 207 206 210 213 210 211 210 219 229 235 253 270 276 292 244 252 252
346 345 35 143 136 156 128 96 96 117 134 153 158 161 173 168 196 181 172 179 190 188 184 188 195 202 206 207 207 206 209 218 226 230 238 241 246 254 264 279 282 272 245 253
34 38 119 137 124 129 111 94 91 89 102 125 142 138 139 159 184 177 195 199 197 196 193 196 210 206 204 205 206 218 225 234 232 235 245 253 256 256 260 264 265 269 267 251
47 64 79 82 136 175 195 51 101 121 127 123 138 166 174 180 185 197 201 203 200 200 208 212 211 215 224 233 238 240 246 250 252 253 254 256 257 257 256 256 258 260 256 255